GW5760 Weather Reports


Display with metric or nautical units.
time (UTC)temp
F
wind
direction
speed
MPH
gust
MPH
rain 1hr
in
rain 24hr
in
rain mn
in
humidity
%
barometer
mb
20260507023616 69 0.0 0.0 0.00 0.00 0.00 59 1015.5
20260507022616 70 0.0 0.0 0.00 0.00 0.00 59 1015.2
20260507021616 70 0.0 0.0 0.00 0.00 0.00 58 1015.2
20260507020616 71 0.0 0.0 0.00 0.00 0.00 57 1015.1
20260507015616 71 0.0 0.0 0.00 0.00 0.00 57 1015.0
20260507014616 72 0.0 0.0 0.00 0.00 0.00 56 1014.9
20260507013616 72 0.0 0.0 0.00 0.00 0.00 55 1014.8
20260507012616 73 0.0 0.0 0.00 0.00 0.00 54 1014.7
20260507011616 73 0.0 0.0 0.00 0.00 0.00 54 1014.7
20260507010616 74 0.0 0.0 0.00 0.00 0.00 54 1014.7
20260507005636 74 0.0 0.0 0.00 0.00 0.00 53 1014.6
20260507004616 74 0.0 0.0 0.00 0.00 0.00 53 1014.7
20260507003615 74 0.0 0.0 0.00 0.00 0.00 52 1014.6
20260507002636 74 0.0 0.0 0.00 0.00 0.00 52 1014.7
20260507001616 74 0.0 0.0 0.00 0.00 0.00 51 1014.6
20260507000636 75 0.0 0.0 0.00 0.00 0.00 51 1014.6
20260506235656 75 0.0 0.0 0.00 0.00 0.00 51 1014.6
20260506234616 75 0.0 0.0 0.00 0.00 0.00 51 1014.6
20260506233616 76 0.0 0.0 0.00 0.00 0.00 50 1014.6
20260506232616 75 0.0 0.0 0.00 0.00 0.00 50 1014.6
20260506231615 75 0.0 0.0 0.00 0.00 0.00 51 1014.7
20260506230618 75 0.0 0.0 0.00 0.00 0.00 52 1014.8
20260506225619 76 0.0 0.0 0.00 0.00 0.00 50 1014.9
20260506224617 75 0.0 0.0 0.00 0.00 0.00 51 1014.9
20260506223618 75 0.0 0.0 0.00 0.00 0.00 49 1015.1
20260506222618 76 0.0 0.0 0.00 0.00 0.00 49 1015.1
20260506221618 75 0.0 0.0 0.00 0.00 0.00 50 1015.1
20260506220618 76 0.0 0.0 0.00 0.00 0.00 50 1015.3
20260506215618 76 0.0 0.0 0.00 0.00 0.00 48 1015.4
20260506214617 76 0.0 0.0 0.00 0.00 0.00 50 1015.5
20260506213617 76 0.0 0.0 0.00 0.00 0.00 50 1015.6
20260506212618 76 0.0 0.0 0.00 0.00 0.00 49 1015.7
20260506211617 75 0.0 0.0 0.00 0.00 0.00 51 1015.8
20260506210639 75 0.0 0.0 0.00 0.00 0.00 50 1016.0
20260506205617 75 0.0 0.0 0.00 0.00 0.00 50 1016.1
20260506204616 75 0.0 0.0 0.00 0.00 0.00 51 1016.1
20260506203638 75 0.0 0.0 0.00 0.00 0.00 51 1016.3
20260506202618 74 0.0 0.0 0.00 0.00 0.00 49 1016.3
20260506201617 73 0.0 0.0 0.00 0.00 0.00 50 1016.5
20260506200617 73 0.0 0.0 0.00 0.00 0.00 48 1016.6
20260506195637 73 338 1.0 4.0 0.00 0.00 0.00 49 1016.8
20260506194617 74 0.0 0.0 0.00 0.00 0.00 49 1016.9
20260506193617 74 0.0 3.0 0.00 0.00 0.00 49 1016.9
20260506192617 72 0.0 0.0 0.00 0.00 0.00 51 1017.1
20260506191618 71 0.0 2.0 0.00 0.00 0.00 53 1017.1
20260506190617 70 0.0 0.0 0.00 0.00 0.00 53 1017.4
20260506185617 71 0.0 0.0 0.00 0.00 0.00 53 1017.4
20260506184638 71 0.0 0.0 0.00 0.00 0.00 53 1017.5
20260506183637 72 0.0 0.0 0.00 0.00 0.00 52 1017.7
20260506182620 71 0.0 0.0 0.00 0.00 0.00 52 1017.8
20260506181617 72 0.0 0.0 0.00 0.00 0.00 53 1017.8
20260506180617 71 0.0 0.0 0.00 0.00 0.00 53 1017.9
20260506175617 70 0.0 0.0 0.00 0.00 0.00 56 1017.9
20260506174617 68 0.0 0.0 0.00 0.00 0.00 56 1017.9
20260506173637 67 0.0 0.0 0.00 0.00 0.00 58 1017.9
20260506172617 68 0.0 0.0 0.00 0.00 0.00 56 1018.0
20260506171617 68 0.0 0.0 0.00 0.00 0.00 57 1018.0
20260506170617 67 0.0 0.0 0.00 0.00 0.00 60 1017.9
20260506165618 66 0.0 0.0 0.00 0.00 0.00 60 1018.0
20260506164617 66 0.0 0.0 0.00 0.00 0.00 60 1017.9
20260506163617 66 0.0 0.0 0.00 0.00 0.00 61 1018.0
20260506162617 65 0.0 0.0 0.00 0.00 0.00 63 1018.0
20260506161617 65 0.0 0.0 0.00 0.00 0.00 65 1017.9
20260506160617 65 0.0 0.0 0.00 0.00 0.00 67 1017.9
20260506155617 64 0.0 0.0 0.00 0.00 0.00 68 1017.9
20260506154617 63 0.0 0.0 0.00 0.00 0.00 74 1018.0
20260506153637 62 0.0 0.0 0.00 0.00 0.00 77 1018.0
20260506152658 61 0.0 0.0 0.00 0.00 0.00 81 1018.1
20260506151637 60 0.0 0.0 0.00 0.00 0.00 85 1018.0
20260506150618 59 0.0 0.0 0.00 0.00 0.00 88 1018.0
20260506145637 57 0.0 0.0 0.00 0.00 0.00 89 1017.9
20260506144617 56 0.0 0.0 0.00 0.00 0.00 89 1018.0
20260506143617 55 0.0 0.0 0.00 0.00 0.00 90 1017.8
20260506142617 54 0.0 0.0 0.00 0.00 0.00 91 1017.7
20260506141617 53 0.0 0.0 0.00 0.00 0.00 91 1017.7
20260506140617 53 0.0 0.0 0.00 0.00 0.00 91 1017.7
20260506135616 52 0.0 0.0 0.00 0.00 0.00 91 1017.7
20260506134617 52 0.0 0.0 0.00 0.00 0.00 91 1017.7
20260506133617 51 0.0 0.0 0.00 0.00 0.00 91 1017.5
20260506132617 51 0.0 0.0 0.00 0.00 0.00 91 1017.5
20260506131617 51 0.0 0.0 0.00 0.00 0.00 91 1017.3
20260506130616 51 0.0 0.0 0.00 0.00 0.00 91 1017.2
20260506125617 51 0.0 0.0 0.00 0.00 0.00 91 1017.0
20260506124616 51 0.0 0.0 0.00 0.00 0.00 91 1017.0
20260506123618 51 0.0 0.0 0.00 0.00 0.00 91 1016.9
20260506122616 51 0.0 0.0 0.00 0.00 0.00 91 1016.8
20260506121617 51 0.0 0.0 0.00 0.01 0.00 90 1016.8
20260506120657 51 0.0 0.0 0.00 0.01 0.00 90 1016.7
20260506115617 51 0.0 0.0 0.00 0.01 0.00 90 1016.7
20260506114616 52 0.0 0.0 0.00 0.01 0.00 90 1016.7
20260506113616 52 0.0 0.0 0.00 0.01 0.00 90 1016.6
20260506112616 52 0.0 0.0 0.00 0.01 0.00 90 1016.6
20260506111616 52 0.0 0.0 0.00 0.01 0.00 90 1016.6
20260506110617 52 0.0 0.0 0.00 0.02 0.00 89 1016.5
20260506105636 53 0.0 0.0 0.00 0.04 0.00 89 1016.6
20260506104616 53 0.0 0.0 0.00 0.04 0.00 89 1016.7
20260506103616 53 0.0 0.0 0.00 0.04 0.00 89 1016.7
20260506102620 53 0.0 0.0 0.00 0.04 0.00 89 1016.7
20260506101617 53 0.0 0.0 0.00 0.04 0.00 89 1016.6
20260506100616 53 0.0 0.0 0.00 0.04 0.00 89 1016.7
20260506095616 53 0.0 0.0 0.00 0.05 0.00 89 1016.8
20260506094637 53 0.0 0.0 0.00 0.06 0.00 89 1016.8
20260506093617 53 0.0 0.0 0.00 0.06 0.00 89 1016.8
20260506092617 53 0.0 0.0 0.00 0.07 0.00 89 1016.8
20260506091617 53 0.0 0.0 0.00 0.07 0.00 88 1016.9
20260506090616 53 0.0 0.0 0.00 0.07 0.00 88 1017.0
20260506085616 53 0.0 0.0 0.00 0.08 0.00 88 1017.0
20260506084616 53 0.0 0.0 0.00 0.08 0.00 87 1017.0
20260506083616 53 0.0 0.0 0.00 0.08 0.00 87 1017.1
20260506082616 53 0.0 0.0 0.00 0.08 0.00 87 1017.2
20260506081616 53 0.0 0.0 0.00 0.08 0.00 86 1017.2
20260506080616 53 0.0 0.0 0.00 0.08 0.00 86 1017.1
20260506072616 54 0.0 0.0 0.00 0.08 0.00 84 1017.1
20260506071616 54 0.0 0.0 0.00 0.08 0.00 83 1017.1
20260506070616 54 0.0 0.0 0.00 0.08 0.00 83 1017.2
20260506061616 56 0.0 0.0 0.00 0.08 0.08 80 1016.8
20260506060616 57 0.0 0.0 0.00 0.08 0.08 79 1016.7
20260506050616 60 0.0 0.0 0.00 0.08 0.08 73 1016.2
20260506044617 61 0.0 0.0 0.00 0.08 0.08 71 1015.9
20260506043617 61 0.0 0.0 0.00 0.08 0.08 70 1015.6
20260506042616 61 0.0 0.0 0.00 0.08 0.08 68 1015.5
20260506041636 62 0.0 0.0 0.00 0.08 0.08 67 1015.5
20260506040617 62 0.0 0.0 0.00 0.08 0.08 64 1015.5
20260506035637 62 0.0 0.0 0.00 0.08 0.08 61 1015.3
20260506034616 63 0.0 0.0 0.00 0.08 0.08 58 1015.0
20260506033617 63 0.0 0.0 0.00 0.08 0.08 58 1014.7
20260506032657 63 0.0 0.0 0.00 0.08 0.08 57 1014.7
20260506031636 63 0.0 0.0 0.00 0.08 0.08 57 1014.6
20260506030616 63 0.0 0.0 0.00 0.08 0.08 57 1014.5
20260506025616 63 0.0 0.0 0.00 0.08 0.08 57 1014.4
20260506024616 63 0.0 0.0 0.00 0.08 0.08 56 1014.2